Back to catalog

DMSP 5D-2 F11 DEB

AliveSSO
NORAD 29078·DEBRIS·🇺🇸 United States

Launched Nov 28, 1991 from Vandenberg Space Force Base

Loading…

Next Passes (next 24 hours)

TLE

FreshSource: Space-Track

Epoch: Sep 13, 2026, 17:09 UTC

1 29078U 91082BZ  26256.71483861  .00003595  00000-0  95360-3 0  9993
2 29078  98.6741 351.0756 0016419  84.7688 275.5378 14.49251298633635

Track DMSP 5D-2 F11 DEB in real time with AllMySat

Download on the App Store